Location: Remedello Sotto
(45.2500°N, 10.3667°E)
Time: 05:05:07
(UTC+00:00)

Cosmos 2322 Rocket - Pass Details

Date: 03 February 2023
Orbit: 831 x 852 km, 71.0° (Epoch: 29 March)

Event Time Altitude Azimuth Distance (km) Brightness Sun altitude
Rises 18:14:57 0° 218° (SW) 3,363 6.0 -19.0°
Reaches altitude 10° 18:17:26 10° 223° (SW) 2,433 5.2 -19.4°
Maximum altitude 18:22:54 54° 301° (WNW) 1,006 2.8 -20.4°
Drops below altitude 10° 18:28:24 10° 18° (NNE) 2,452 4.4 -21.4°
Enters shadow 18:28:53 - 20° (NNE) 2,633 4.6 -21.5°
